Lid_Strength_Index
7 7 8 7 7 8 8 8 7 6 6 5 4 3 2 2 1 1 2 1 2 2 2 2 2 2 3 3 2 3 3 3 5 3 3 2 3 3 2 1 1 1 2
8 8 8 8 9 9 9 9 8 7 6 6 5 4 3 2 1 2 2 2 2 2 2 2 2 2 2 3 3 2 3 3 3 4 3 3 3 3 3 2 2 2 1
8 8 9 9 9 10 9 8 8 8 7 6 6 5 4 3 2 1 1 2 2 2 2 2 3 2 2 2 2 2 2 2 2 3 4 4 4 4 4 3 3 2 1
9 10 10 10 10 9 9 8 8 8 8 8 8 7 5 4 2 1 2 2 2 2 2 2 2 2 2 2 2 2 2 3 3 3 4 5 5 5 5 5 5 4 4
11 11 11 10 10 10 10 10 8 8 8 8 8 7 6 4 4 2 2 2 2 2 2 2 2 1 1 2 2 2 2 3 3 4 6 7 8 8 8 6 6 4 4
11 12 10 11 10 11 10 10 9 10 10 9 8 7 7 5 4 4 4 2 2 2 2 2 2 2 2 4 3 3 2 3 4 5 7 7 9 9 7 5 5 5 5
12 11 11 11 10 10 10 10 9 9 8 7 7 7 6 5 5 5 5 3 2 4 3 3 2 1 2 2 5 6 6 6 4 5 7 8 8 7 5 5 5 4 5
11 11 11 11 10 10 10 9 8 8 8 7 6 6 5 4 5 6 5 3 3 3 2 2 2 2 2 3 4 5 5 5 5 6 6 6 5 5 3 4 4 4 3
12 12 11 11 11 10 9 8 8 8 8 7 6 6 7 6 7 7 5 3 3 3 2 1 2 2 5 8 5 6 6 5 6 7 7 7 8 7 5 3 4 4 5
12 12 11 11 10 10 9 8 8 8 8 8 7 7 6 6 7 7 6 2 3 3 2 2 6 3 9 8 4 4 4 4 3 4 4 6 7 7 6 4 3 4 5
12 11 11 11 10 8 8 7 7 7 7 8 9 8 7 5 5 7 7 3 3 3 3 3 2 7 9 8 6 3 4 4 5 4 5 5 5 5 4 3 1 2 3
12 12 12 11 9 8 7 7 7 7 8 8 9 9 7 6 7 6 7 5 4 3 3 2 2 8 9 8 5 9 9 6 5 5 5 5 5 4 4 4 2 2 1
13 12 12 10 9 8 7 7 8 8 8 9 10 9 8 6 5 6 8 7 6 2 2 3 7 9 9 7 10 10 8 4 4 5 5 6 5 4 5 2 2 2 2
13 13 12 11 9 7 7 7 8 8 8 8 9 9 7 6 3 4 4 6 6 4 5 5 8 8 7 8 7 6 4 4 6 7 7 6 5 4 3 3 4 4 4
13 13 12 10 9 7 7 8 8 7 7 8 9 8 7 5 6 9 5 3 3 4 6 6 6 5 6 6 6 6 7 6 5 5 6 6 5 4 3 4 4 4 4
14 12 11 9 8 7 8 8 9 10 9 10 11 9 7 8 10 9 9 10 9 9 5 5 5 5 5 6 6 6 5 5 4 5 5 5 5 4 3 3 4 5 4
13 12 11 10 7 7 8 8 9 9 10 10 10 10 10 10 11 11 11 11 10 9 6 6 6 6 6 6 6 6 5 5 4 4 5 5 4 4 4 3 4 4 5
13 12 11 9 7 7 7 8 8 8 9 9 9 10 9 10 11 11 11 8 7 7 6 6 6 6 6 6 5 5 6 6 4 4 3 4 4 4 4 4 5 4 3
13 12 10 9 7 6 7 8 8 8 8 8 8 9 9 10 11 12 11 5 5 6 7 6 6 6 6 5 5 5 6 5 5 4 3 3 4 4 4 4 4 9 6
13 13 11 10 8 7 7 7 7 7 8 7 8 9 7 8 8 8 8 5 5 5 6 6 6 6 5 5 5 6 6 5 5 5 4 3 3 4 4 4 4 3 3
14 13 13 11 9 8 9 8 7 7 7 7 8 8 10 6 7 7 7 5 5 5 5 6 5 5 5 5 5 5 5 6 6 4 5 4 3 4 3 3 3 3 4
14 14 14 13 11 10 10 8 6 6 6 6 7 9 12 5 6 6 6 5 4 4 4 5 5 5 5 5 5 5 5 6 6 5 4 4 3 4 4 2 3 4 6
14 15 15 14 13 12 11 10 8 7 6 6 6 7 6 5 6 5 5 5 4 4 4 5 5 5 5 5 5 4 4 4 4 5 3 3 4 4 3 3 4 4 5
15 15 16 16 15 13 12 11 11 11 8 7 7 6 6 6 6 6 5 4 5 5 5 5 5 5 5 5 4 3 2 1 2 3 3 3 3 5 3 3 4 4 6
15 16 16 16 16 14 13 13 12 12 11 9 7 7 6 6 6 6 6 5 5 5 5 5 5 5 5 5 5 4 6 10 5 6 3 3 3 4 4 4 3 4 7
16 16 17 17 17 16 14 14 14 13 13 12 11 9 8 7 7 6 6 6 6 6 5 5 6 5 5 5 4 7 10 11 8 12 3 3 3 3 3 3 4 6 7